This is the latest recevied weather packets stored in our database for station/object SV2LPQ-2. If no packets are shown the sender has not sent any weather packets the latest 1 day(s).
| Time | Temp. | Humidity | Pressure | Rain* | Wind** | Luminosity | Snow |
|---|---|---|---|---|---|---|---|
| 1777980574 | 28.89° C | 29% | 1042.5 hPa | 0 mm | 0 m/s | - | - |
| 1777980074 | 28.33° C | 30% | 1042.5 hPa | 0 mm | 0.45 m/s, 323° | - | - |
| 1777979573 | 28.33° C | 32% | 1042.5 hPa | 0 mm | 0.89 m/s, 208° | - | - |
| 1777979074 | 28.33° C | 33% | 1042.5 hPa | 0 mm | 0 m/s | - | - |
| 1777978573 | 28.33° C | 35% | 1042.5 hPa | 0 mm | 0.89 m/s, 325° | - | - |
| 1777978077 | 27.78° C | 35% | 1042.5 hPa | 0 mm | 0 m/s | - | - |
| 1777977574 | 27.22° C | 35% | 1042.5 hPa | 0 mm | 0 m/s | - | - |
| 1777977073 | 26.67° C | 35% | 1042.5 hPa | 0 mm | 0 m/s | - | - |
| 1777976573 | 26.67° C | 37% | 1042.5 hPa | 0 mm | 0.89 m/s, 315° | - | - |
| 1777976073 | 26.11° C | 38% | 1042.5 hPa | 0 mm | 0 m/s | - | - |
| 1777975573 | 26.11° C | 37% | 1042.5 hPa | 0 mm | 0 m/s | - | - |
| 1777975073 | 26.11° C | 37% | 1042.5 hPa | 0 mm | 0.45 m/s, 19° | - | - |
| 1777974573 | 25.56° C | 38% | 1042.5 hPa | 0 mm | 0 m/s | - | - |
| 1777974073 | 25° C | 38% | 1042.5 hPa | 0 mm | 0 m/s | - | - |
| 1777973573 | 25° C | 39% | 1042.5 hPa | 0 mm | 0 m/s | - | - |
| 1777973073 | 24.44° C | 39% | 1042.5 hPa | 0 mm | 0 m/s | - | - |
| 1777972574 | 23.89° C | 40% | 1042.5 hPa | 0 mm | 0.45 m/s, 314° | - | - |
| 1777972073 | 23.33° C | 39% | 1042.5 hPa | 0 mm | 0 m/s | - | - |
| 1777971573 | 23.33° C | 39% | 1042.5 hPa | 0 mm | 0 m/s | - | - |
| 1777971073 | 23.33° C | 41% | 1042.5 hPa | 0 mm | 0 m/s | - | - |
| 1777970573 | 22.78° C | 43% | 1042.5 hPa | 0 mm | 0 m/s | - | - |
| 1777970074 | 22.22° C | 43% | 1042.5 hPa | 0 mm | 0.45 m/s, 316° | - | - |
| 1777969573 | 22.22° C | 45% | 1042.5 hPa | 0 mm | 0 m/s | - | - |
| 1777969073 | 21.67° C | 45% | 1042.5 hPa | 0 mm | 0 m/s | - | - |
| 1777968574 | 21.67° C | 48% | 1042.5 hPa | 0 mm | 0.45 m/s, 349° | - | - |
* Rain latest hour (hover to see other rain measurements)
** Current wind speed in m/s (hover to see current wind gust speed)